TimeEDT,TemperatureF,Dew PointF,Humidity,Sea Level PressureIn,VisibilityMPH,Wind Direction,Wind SpeedMPH,Gust SpeedMPH,PrecipitationIn,Events,Conditions,WindDirDegrees,DateUTC
12:54 AM,57.9,52.0,81,29.89,10.0,NNW,4.6,-,N/A,,Clear,340,2013-09-14 04:54:00
1:54 AM,57.0,51.1,81,29.91,10.0,NNW,6.9,-,N/A,,Clear,330,2013-09-14 05:54:00
2:54 AM,55.9,50.0,80,29.92,10.0,NNW,6.9,-,N/A,,Clear,330,2013-09-14 06:54:00
3:54 AM,54.0,48.0,80,29.92,10.0,NNW,3.5,-,N/A,,Clear,330,2013-09-14 07:54:00
4:54 AM,52.0,48.0,86,29.94,10.0,Calm,Calm,-,N/A,,Clear,0,2013-09-14 08:54:00
5:54 AM,50.0,48.0,93,29.95,10.0,NW,3.5,-,N/A,,Clear,320,2013-09-14 09:54:00
6:54 AM,46.9,46.0,97,29.98,10.0,West,4.6,-,N/A,,Clear,280,2013-09-14 10:54:00
7:54 AM,55.0,48.9,80,30.00,10.0,WNW,6.9,-,N/A,,Clear,300,2013-09-14 11:54:00
8:54 AM,59.0,50.0,72,30.01,10.0,NNW,5.8,-,N/A,,Clear,330,2013-09-14 12:54:00
9:54 AM,61.0,48.0,62,30.02,10.0,North,10.4,-,N/A,,Partly Cloudy,360,2013-09-14 13:54:00
10:54 AM,63.0,48.0,58,30.04,10.0,WNW,6.9,19.6,N/A,,Scattered Clouds,300,2013-09-14 14:54:00
11:54 AM,66.0,48.0,52,30.03,10.0,NW,12.7,16.1,N/A,,Mostly Cloudy,320,2013-09-14 15:54:00
12:54 PM,64.0,48.0,56,30.04,10.0,NNW,12.7,18.4,N/A,,Overcast,340,2013-09-14 16:54:00
1:54 PM,66.0,48.0,52,30.04,10.0,NW,12.7,-,N/A,,Mostly Cloudy,310,2013-09-14 17:54:00
2:54 PM,64.9,48.0,54,30.04,10.0,NNW,9.2,-,N/A,,Mostly Cloudy,330,2013-09-14 18:54:00
3:54 PM,64.0,48.0,56,30.04,10.0,NNW,9.2,-,N/A,,Overcast,330,2013-09-14 19:54:00
4:54 PM,66.0,48.0,52,30.05,10.0,WNW,10.4,-,N/A,,Scattered Clouds,300,2013-09-14 20:54:00
5:54 PM,64.9,48.0,54,30.07,10.0,NW,6.9,-,N/A,,Clear,310,2013-09-14 21:54:00
6:54 PM,61.0,48.0,62,30.09,10.0,NW,5.8,-,N/A,,Clear,310,2013-09-14 22:54:00
7:54 PM,53.1,48.9,86,30.11,10.0,Calm,Calm,-,N/A,,Clear,0,2013-09-14 23:54:00
8:54 PM,51.1,48.9,92,30.14,10.0,Calm,Calm,-,N/A,,Clear,0,2013-09-15 00:54:00
9:54 PM,53.1,48.0,83,30.14,10.0,NNW,3.5,-,N/A,,Clear,330,2013-09-15 01:54:00
10:54 PM,52.0,46.9,83,30.15,10.0,Calm,Calm,-,N/A,,Clear,0,2013-09-15 02:54:00
11:54 PM,48.9,46.9,93,30.16,10.0,Calm,Calm,-,N/A,,Clear,0,2013-09-15 03:54:00